| time (UTC) | temp F | wind direction | speed knots | gust knots | rain 1hr in | rain 24hr in | rain mn in | humidity % | barometer mb |
| 20260507052755 | 59 | 180 | 6.1 | 6.1 | 0.00 | 0.00 | 0.00 | 78 | 1015.6 |
| 20260507052255 | 58 | 157 | 3.5 | 7.0 | 0.00 | 0.00 | 0.00 | 78 | 1015.6 |
| 20260507051756 | 58 | 157 | 4.3 | 7.8 | 0.00 | 0.00 | 0.00 | 78 | 1015.6 |
| 20260507051255 | 58 | 157 | 2.6 | 6.1 | 0.00 | 0.00 | 0.00 | 77 | 1015.5 |
| 20260507050755 | 59 | 180 | 2.6 | 5.2 | 0.00 | 0.00 | 0.00 | 77 | 1015.5 |
| 20260507050255 | 60 | 202 | 3.5 | 5.2 | 0.00 | 0.00 | 0.00 | 76 | 1015.6 |
| 20260507045755 | 59 | 180 | 1.7 | 5.2 | 0.00 | 0.00 | 0.00 | 78 | 1015.5 |
| 20260507045255 | 58 | 180 | 3.5 | 6.1 | 0.00 | 0.00 | 0.00 | 81 | 1015.5 |
| 20260507044755 | 57 | 180 | 0.0 | 4.3 | 0.00 | 0.00 | 0.00 | 82 | 1015.4 |
| 20260507044255 | 56 | 180 | 2.6 | 4.3 | 0.00 | 0.00 | 0.00 | 84 | 1015.4 |
| 20260507043755 | 55 | 202 | 3.5 | 3.5 | 0.00 | 0.00 | 0.00 | 86 | 1015.4 |
| 20260507043255 | 53 | 157 | 1.7 | 2.6 | 0.00 | 0.00 | 0.00 | 88 | 1015.4 |
| 20260507042755 | 51 | 202 | 1.7 | 3.5 | 0.00 | 0.00 | 0.00 | 89 | 1015.4 |
| 20260507042255 | 51 | 180 | 2.6 | 3.5 | 0.00 | 0.00 | 0.00 | 89 | 1015.5 |
| 20260507041755 | 50 | 202 | 0.9 | 1.7 | 0.00 | 0.00 | 0.00 | 89 | 1015.5 |
| 20260507041255 | 50 | 225 | 0.0 | 0.9 | 0.00 | 0.00 | 0.00 | 89 | 1015.4 |
| 20260507040755 | 50 | 202 | 0.0 | 0.9 | 0.00 | 0.00 | 0.00 | 89 | 1015.4 |
| 20260507040255 | 50 | 225 | 0.0 | 0.9 | 0.00 | 0.00 | 0.00 | 89 | 1015.4 |
| 20260507035755 | 50 | 225 | 0.0 | 1.7 | 0.00 | 0.00 | 0.00 | 89 | 1015.4 |
| 20260507035255 | 50 | 247 | 0.0 | 1.7 | 0.00 | 0.00 | 0.00 | 90 | 1015.3 |
| 20260507034755 | 50 | 202 | 1.7 | 4.3 | 0.00 | 0.00 | 0.00 | 90 | 1015.3 |
| 20260507034255 | 50 | 202 | 1.7 | 3.5 | 0.00 | 0.00 | 0.00 | 90 | 1015.2 |
| 20260507033755 | 50 | 225 | 1.7 | 4.3 | 0.00 | 0.00 | 0.00 | 90 | 1015.1 |
| 20260507033255 | 50 | 225 | 1.7 | 4.3 | 0.00 | 0.00 | 0.00 | 90 | 1015.1 |
| 20260507032755 | 50 | 270 | 0.0 | 2.6 | 0.00 | 0.00 | 0.00 | 90 | 1015.0 |
| 20260507032255 | 50 | 225 | 0.9 | 3.5 | 0.00 | 0.00 | 0.00 | 91 | 1015.1 |
| 20260507031755 | 50 | 225 | 1.7 | 5.2 | 0.00 | 0.00 | 0.00 | 91 | 1015.0 |
| 20260507031255 | 49 | 180 | 5.2 | 7.0 | 0.00 | 0.00 | 0.00 | 91 | 1014.9 |
| 20260507030755 | 49 | 202 | 5.2 | 7.0 | 0.00 | 0.00 | 0.00 | 91 | 1014.8 |
| 20260507030255 | 49 | 202 | 6.1 | 8.7 | 0.00 | 0.00 | 0.00 | 91 | 1014.8 |
| 20260507025755 | 49 | 202 | 4.3 | 7.8 | 0.00 | 0.00 | 0.00 | 92 | 1014.7 |
| 20260507025255 | 50 | 180 | 2.6 | 3.5 | 0.00 | 0.00 | 0.00 | 92 | 1014.7 |
| 20260507024755 | 49 | 157 | 1.7 | 7.0 | 0.00 | 0.00 | 0.00 | 92 | 1014.7 |
| 20260507024255 | 49 | 202 | 3.5 | 5.2 | 0.00 | 0.00 | 0.00 | 92 | 1014.7 |
| 20260507023755 | 49 | 180 | 3.5 | 7.8 | 0.00 | 0.00 | 0.00 | 92 | 1014.7 |
| 20260507023255 | 49 | 202 | 3.5 | 5.2 | 0.00 | 0.00 | 0.00 | 92 | 1014.7 |
| 20260507022756 | 50 | 202 | 2.6 | 7.0 | 0.00 | 0.00 | 0.00 | 92 | 1014.7 |
| 20260507022256 | 50 | 202 | 4.3 | 6.1 | 0.00 | 0.00 | 0.00 | 92 | 1014.7 |
| 20260507021755 | 49 | 202 | 1.7 | 5.2 | 0.00 | 0.00 | 0.00 | 93 | 1014.6 |
| 20260507021256 | 49 | 202 | 3.5 | 4.3 | 0.00 | 0.00 | 0.00 | 93 | 1014.6 |
| 20260507020756 | 49 | 225 | 2.6 | 5.2 | 0.00 | 0.00 | 0.00 | 93 | 1014.6 |
| 20260507020256 | 49 | 202 | 4.3 | 4.3 | 0.00 | 0.00 | 0.00 | 93 | 1014.6 |
| 20260507015756 | 49 | 157 | 0.9 | 7.8 | 0.00 | 0.00 | 0.00 | 93 | 1014.6 |
| 20260507015256 | 49 | 202 | 2.6 | 3.5 | 0.00 | 0.00 | 0.00 | 93 | 1014.5 |
| 20260507014756 | 49 | 202 | 3.5 | 6.1 | 0.00 | 0.00 | 0.00 | 93 | 1014.5 |
| 20260507014256 | 49 | 225 | 4.3 | 4.3 | 0.00 | 0.00 | 0.00 | 93 | 1014.5 |
| 20260507013756 | 49 | 202 | 1.7 | 5.2 | 0.00 | 0.00 | 0.00 | 93 | 1014.5 |
| 20260507013256 | 48 | 157 | 4.3 | 4.3 | 0.00 | 0.00 | 0.00 | 93 | 1014.6 |
| 20260507012756 | 48 | 202 | 0.0 | 0.9 | 0.00 | 0.00 | 0.00 | 93 | 1014.6 |
| 20260507012256 | 48 | 225 | 0.0 | 0.0 | 0.00 | 0.00 | 0.00 | 93 | 1014.5 |
| 20260507011756 | 48 | 247 | 0.0 | 0.0 | 0.00 | 0.00 | 0.00 | 93 | 1014.5 |
| 20260507011256 | 48 | 270 | 0.0 | 49.5 | 0.00 | 0.00 | 0.00 | 93 | 1014.5 |
| 20260507010756 | 48 | 180 | 49.5 | 49.5 | 0.00 | 0.00 | 0.00 | 93 | 1014.5 |
| 20260507010256 | 48 | 225 | 1.7 | 1.7 | 0.00 | 0.00 | 0.00 | 93 | 1014.5 |
| 20260507005756 | 48 | 225 | 0.9 | 0.9 | 0.00 | 0.00 | 0.00 | 93 | 1014.5 |
| 20260507005256 | 48 | 225 | 0.9 | 1.7 | 0.00 | 0.00 | 0.00 | 93 | 1014.5 |
| 20260507004756 | 47 | 202 | 1.7 | 1.7 | 0.00 | 0.00 | 0.00 | 93 | 1014.5 |
| 20260507004256 | 47 | 247 | 0.0 | 1.7 | 0.00 | 0.00 | 0.00 | 93 | 1014.3 |
| 20260507003756 | 47 | 247 | 0.0 | 1.7 | 0.00 | 0.00 | 0.00 | 93 | 1014.3 |
| 20260507003256 | 47 | 247 | 1.7 | 1.7 | 0.00 | 0.00 | 0.00 | 93 | 1014.3 |
| 20260507002756 | 47 | 202 | 1.7 | 2.6 | 0.00 | 0.00 | 0.00 | 93 | 1014.3 |
| 20260507002256 | 47 | 202 | 0.9 | 1.7 | 0.00 | 0.00 | 0.00 | 93 | 1014.2 |
| 20260507001756 | 46 | 202 | 1.7 | 1.7 | 0.00 | 0.00 | 0.00 | 93 | 1014.2 |
| 20260507001256 | 48 | 202 | 0.0 | 0.0 | 0.00 | 0.00 | 0.00 | 93 | 1014.3 |
| 20260507000756 | 48 | 202 | 0.0 | 1.7 | 0.00 | 0.00 | 0.00 | 93 | 1014.3 |
| 20260507000256 | 49 | 202 | 1.7 | 1.7 | 0.00 | 0.00 | 0.00 | 93 | 1014.3 |
| 20260506235756 | 49 | 202 | 1.7 | 1.7 | 0.00 | 0.00 | 0.00 | 93 | 1014.3 |
| 20260506235256 | 49 | 202 | 1.7 | 4.3 | 0.00 | 0.00 | 0.00 | 93 | 1014.3 |
| 20260506234756 | 48 | 225 | 3.5 | 6.1 | 0.00 | 0.00 | 0.00 | 92 | 1014.3 |
| 20260506234256 | 47 | 180 | 1.7 | 1.7 | 0.00 | 0.00 | 0.00 | 92 | 1014.4 |
| 20260506233756 | 47 | 225 | 0.9 | 0.9 | 0.00 | 0.00 | 0.00 | 92 | 1014.4 |
| 20260506233256 | 47 | 202 | 0.0 | 1.7 | 0.00 | 0.00 | 0.00 | 92 | 1014.4 |
| 20260506232756 | 46 | 202 | 1.7 | 1.7 | 0.00 | 0.00 | 0.00 | 92 | 1014.4 |
| 20260506232256 | 46 | 180 | 0.0 | 1.7 | 0.00 | 0.00 | 0.00 | 92 | 1014.5 |
| 20260506231756 | 46 | 247 | 0.0 | 0.0 | 0.00 | 0.00 | 0.00 | 92 | 1014.4 |
| 20260506231256 | 46 | 225 | 0.0 | 0.9 | 0.00 | 0.00 | 0.00 | 92 | 1014.5 |
| 20260506230756 | 46 | 225 | 0.0 | 1.7 | 0.00 | 0.00 | 0.00 | 92 | 1014.5 |
| 20260506230256 | 46 | 225 | 1.7 | 1.7 | 0.00 | 0.00 | 0.00 | 92 | 1014.5 |
| 20260506225756 | 46 | 247 | 0.9 | 1.7 | 0.00 | 0.00 | 0.00 | 92 | 1014.5 |
| 20260506225256 | 46 | 202 | 0.0 | 2.6 | 0.00 | 0.00 | 0.00 | 91 | 1014.5 |
| 20260506224756 | 46 | 247 | 0.9 | 0.9 | 0.00 | 0.00 | 0.00 | 92 | 1014.6 |
| 20260506224256 | 46 | 247 | 0.9 | 0.9 | 0.00 | 0.00 | 0.00 | 91 | 1014.6 |
| 20260506223756 | 46 | 247 | 0.9 | 1.7 | 0.00 | 0.00 | 0.00 | 91 | 1014.8 |
| 20260506223256 | 46 | 225 | 0.0 | 0.9 | 0.00 | 0.00 | 0.00 | 91 | 1014.6 |
| 20260506222756 | 46 | 247 | 0.0 | 0.0 | 0.00 | 0.00 | 0.00 | 91 | 1014.6 |
| 20260506222256 | 47 | 247 | 0.0 | 0.0 | 0.00 | 0.00 | 0.00 | 91 | 1014.6 |
| 20260506221756 | 47 | 247 | 0.0 | 1.7 | 0.00 | 0.00 | 0.00 | 91 | 1014.7 |
| 20260506221256 | 48 | 270 | 0.0 | 0.9 | 0.00 | 0.00 | 0.00 | 92 | 1014.6 |
| 20260506220756 | 49 | 247 | 0.0 | 1.7 | 0.00 | 0.00 | 0.00 | 92 | 1014.6 |
| 20260506220256 | 51 | 225 | 1.7 | 3.5 | 0.00 | 0.00 | 0.00 | 92 | 1014.6 |
| 20260506215756 | 51 | 202 | 3.5 | 3.5 | 0.00 | 0.00 | 0.00 | 92 | 1014.6 |
| 20260506215256 | 51 | 202 | 1.7 | 5.2 | 0.00 | 0.00 | 0.00 | 92 | 1014.6 |
| 20260506214756 | 51 | 202 | 5.2 | 5.2 | 0.00 | 0.00 | 0.00 | 92 | 1014.6 |
| 20260506214256 | 51 | 202 | 2.6 | 4.3 | 0.00 | 0.00 | 0.00 | 92 | 1014.6 |
| 20260506213756 | 51 | 180 | 1.7 | 4.3 | 0.00 | 0.00 | 0.00 | 92 | 1014.5 |
| 20260506213256 | 51 | 202 | 1.7 | 4.3 | 0.00 | 0.00 | 0.00 | 92 | 1014.5 |
| 20260506212756 | 51 | 202 | 4.3 | 4.3 | 0.00 | 0.00 | 0.00 | 92 | 1014.5 |
| 20260506212256 | 51 | 180 | 1.7 | 1.7 | 0.00 | 0.00 | 0.00 | 92 | 1014.5 |
| 20260506211756 | 51 | 180 | 1.7 | 4.3 | 0.00 | 0.00 | 0.00 | 92 | 1014.4 |
| 20260506211256 | 51 | 180 | 1.7 | 3.5 | 0.00 | 0.00 | 0.00 | 92 | 1014.4 |
| 20260506210756 | 51 | 157 | 3.5 | 3.5 | 0.00 | 0.00 | 0.00 | 92 | 1014.4 |
| 20260506210256 | 51 | 180 | 3.5 | 4.3 | 0.00 | 0.00 | 0.00 | 92 | 1014.5 |
| 20260506205756 | 51 | 135 | 1.7 | 4.3 | 0.00 | 0.00 | 0.00 | 92 | 1014.5 |
| 20260506205256 | 51 | 202 | 3.5 | 5.2 | 0.00 | 0.00 | 0.00 | 91 | 1014.5 |
| 20260506204756 | 51 | 202 | 2.6 | 2.6 | 0.00 | 0.00 | 0.00 | 91 | 1014.5 |
| 20260506204256 | 52 | 157 | 1.7 | 7.0 | 0.00 | 0.00 | 0.00 | 91 | 1014.4 |
| 20260506203756 | 52 | 180 | 1.7 | 7.0 | 0.00 | 0.00 | 0.00 | 91 | 1014.4 |
| 20260506203256 | 52 | 157 | 2.6 | 6.1 | 0.00 | 0.00 | 0.00 | 91 | 1014.5 |
| 20260506202756 | 51 | 157 | 4.3 | 6.1 | 0.00 | 0.00 | 0.00 | 91 | 1014.5 |
| 20260506202256 | 51 | 135 | 4.3 | 5.2 | 0.00 | 0.00 | 0.00 | 91 | 1014.6 |
| 20260506201756 | 51 | 180 | 2.6 | 7.8 | 0.00 | 0.00 | 0.00 | 91 | 1014.6 |
| 20260506201256 | 51 | 180 | 3.5 | 5.2 | 0.00 | 0.00 | 0.00 | 91 | 1014.5 |
| 20260506200756 | 51 | 180 | 2.6 | 5.2 | 0.00 | 0.00 | 0.00 | 91 | 1014.4 |
| 20260506200256 | 51 | 202 | 0.9 | 5.2 | 0.00 | 0.00 | 0.00 | 91 | 1014.5 |
| 20260506195756 | 51 | 157 | 3.5 | 5.2 | 0.00 | 0.00 | 0.00 | 90 | 1014.5 |
| 20260506195256 | 51 | 180 | 3.5 | 5.2 | 0.00 | 0.00 | 0.00 | 90 | 1014.5 |
| 20260506194756 | 52 | 180 | 1.7 | 7.8 | 0.00 | 0.00 | 0.00 | 90 | 1014.5 |
| 20260506194256 | 52 | 202 | 4.3 | 4.3 | 0.00 | 0.00 | 0.00 | 90 | 1014.5 |
| 20260506193756 | 52 | 157 | 2.6 | 4.3 | 0.00 | 0.00 | 0.00 | 90 | 1014.5 |
| 20260506193256 | 52 | 180 | 2.6 | 4.3 | 0.00 | 0.00 | 0.00 | 90 | 1014.5 |
| 20260506192756 | 52 | 157 | 2.6 | 4.3 | 0.00 | 0.00 | 0.00 | 90 | 1014.5 |
| 20260506192256 | 52 | 157 | 2.6 | 5.2 | 0.00 | 0.00 | 0.00 | 89 | 1014.5 |
| 20260506191756 | 52 | 135 | 3.5 | 7.0 | 0.00 | 0.00 | 0.00 | 89 | 1014.5 |
| 20260506191256 | 52 | 180 | 2.6 | 5.2 | 0.00 | 0.00 | 0.00 | 89 | 1014.6 |
| 20260506190756 | 52 | 157 | 2.6 | 7.0 | 0.00 | 0.00 | 0.00 | 89 | 1014.6 |
| 20260506190256 | 52 | 157 | 5.2 | 6.1 | 0.00 | 0.00 | 0.00 | 89 | 1014.6 |
| 20260506185756 | 52 | 202 | 5.2 | 5.2 | 0.00 | 0.00 | 0.00 | 88 | 1014.5 |
| 20260506185256 | 53 | 135 | 2.6 | 5.2 | 0.00 | 0.00 | 0.00 | 88 | 1014.4 |
| 20260506184756 | 53 | 202 | 2.6 | 7.0 | 0.00 | 0.00 | 0.00 | 88 | 1014.5 |
| 20260506184256 | 53 | 180 | 3.5 | 5.2 | 0.00 | 0.00 | 0.00 | 88 | 1014.5 |
| 20260506183756 | 53 | 157 | 0.9 | 5.2 | 0.00 | 0.00 | 0.00 | 88 | 1014.5 |
| 20260506183256 | 53 | 157 | 3.5 | 6.1 | 0.00 | 0.00 | 0.00 | 88 | 1014.4 |
| 20260506182756 | 53 | 180 | 2.6 | 5.2 | 0.00 | 0.00 | 0.00 | 87 | 1014.4 |
| 20260506182256 | 53 | 157 | 4.3 | 6.1 | 0.00 | 0.00 | 0.00 | 87 | 1014.3 |
| 20260506181756 | 53 | 157 | 3.5 | 5.2 | 0.00 | 0.00 | 0.00 | 87 | 1014.3 |
| 20260506181256 | 53 | 180 | 3.5 | 5.2 | 0.00 | 0.00 | 0.00 | 86 | 1014.2 |
| 20260506180756 | 53 | 180 | 1.7 | 5.2 | 0.00 | 0.00 | 0.00 | 86 | 1014.2 |
| 20260506180256 | 53 | 157 | 2.6 | 7.0 | 0.00 | 0.00 | 0.00 | 85 | 1014.1 |
| 20260506175756 | 53 | 180 | 2.6 | 5.2 | 0.00 | 0.00 | 0.00 | 85 | 1014.1 |
| 20260506175256 | 53 | 180 | 1.7 | 5.2 | 0.00 | 0.00 | 0.00 | 84 | 1014.0 |
| 20260506174756 | 53 | 180 | 1.7 | 5.2 | 0.00 | 0.00 | 0.00 | 84 | 1013.9 |
| 20260506174256 | 54 | 157 | 1.7 | 5.2 | 0.00 | 0.00 | 0.00 | 84 | 1013.9 |
| 20260506173756 | 54 | 157 | 3.5 | 6.1 | 0.00 | 0.00 | 0.00 | 83 | 1013.7 |
| 20260506173256 | 54 | 157 | 5.2 | 7.0 | 0.00 | 0.00 | 0.00 | 83 | 1013.7 |
| 20260506172756 | 54 | 157 | 2.6 | 7.0 | 0.00 | 0.00 | 0.00 | 82 | 1013.7 |
| 20260506172256 | 54 | 157 | 5.2 | 6.1 | 0.00 | 0.00 | 0.00 | 82 | 1013.8 |
| 20260506171756 | 54 | 157 | 3.5 | 4.3 | 0.00 | 0.00 | 0.00 | 82 | 1013.8 |
| 20260506171256 | 54 | 157 | 1.7 | 5.2 | 0.00 | 0.00 | 0.00 | 82 | 1013.9 |
| 20260506170756 | 55 | 157 | 1.7 | 5.2 | 0.00 | 0.00 | 0.00 | 81 | 1013.8 |
| 20260506170256 | 55 | 135 | 2.6 | 5.2 | 0.00 | 0.00 | 0.00 | 81 | 1013.9 |
| 20260506165756 | 55 | 135 | 2.6 | 3.5 | 0.00 | 0.00 | 0.00 | 79 | 1013.8 |
| 20260506165256 | 56 | 157 | 3.5 | 5.2 | 0.00 | 0.00 | 0.00 | 79 | 1013.7 |
| 20260506164756 | 56 | 157 | 2.6 | 7.0 | 0.00 | 0.00 | 0.00 | 78 | 1013.8 |
| 20260506164256 | 57 | 157 | 4.3 | 5.2 | 0.00 | 0.00 | 0.00 | 78 | 1013.8 |
| 20260506163756 | 57 | 180 | 2.6 | 7.0 | 0.00 | 0.00 | 0.00 | 77 | 1013.7 |
| 20260506163256 | 58 | 135 | 3.5 | 4.3 | 0.00 | 0.00 | 0.00 | 76 | 1013.7 |
| 20260506162756 | 59 | 157 | 2.6 | 5.2 | 0.00 | 0.00 | 0.00 | 76 | 1013.7 |
| 20260506162256 | 59 | 157 | 2.6 | 4.3 | 0.00 | 0.00 | 0.00 | 75 | 1013.7 |
| 20260506161756 | 59 | 180 | 2.6 | 5.2 | 0.00 | 0.00 | 0.00 | 75 | 1013.7 |
| 20260506161256 | 60 | 157 | 2.6 | 6.1 | 0.00 | 0.00 | 0.00 | 74 | 1013.7 |
| 20260506160756 | 60 | 157 | 6.1 | 6.1 | 0.00 | 0.00 | 0.00 | 74 | 1013.7 |
| 20260506160256 | 60 | 180 | 1.7 | 7.8 | 0.00 | 0.00 | 0.00 | 73 | 1013.7 |
| 20260506155756 | 60 | 180 | 5.2 | 6.1 | 0.00 | 0.00 | 0.00 | 73 | 1013.7 |
| 20260506155256 | 60 | 157 | 3.5 | 7.0 | 0.00 | 0.00 | 0.00 | 72 | 1013.7 |
| 20260506154756 | 60 | 157 | 2.6 | 7.0 | 0.00 | 0.00 | 0.00 | 72 | 1013.7 |
| 20260506154256 | 60 | 157 | 3.5 | 7.0 | 0.00 | 0.00 | 0.00 | 71 | 1013.8 |
| 20260506153756 | 60 | 157 | 3.5 | 5.2 | 0.00 | 0.00 | 0.00 | 72 | 1013.8 |
| 20260506153256 | 60 | 135 | 5.2 | 6.1 | 0.00 | 0.00 | 0.00 | 72 | 1013.7 |
| 20260506152756 | 61 | 157 | 2.6 | 7.0 | 0.00 | 0.00 | 0.00 | 71 | 1013.7 |
| 20260506152256 | 61 | 135 | 2.6 | 7.0 | 0.00 | 0.00 | 0.00 | 71 | 1013.8 |
| 20260506151756 | 61 | 180 | 2.6 | 7.8 | 0.00 | 0.00 | 0.00 | 72 | 1013.9 |
| 20260506151256 | 61 | 157 | 3.5 | 7.8 | 0.00 | 0.00 | 0.00 | 71 | 1013.9 |
| 20260506150756 | 61 | 112 | 5.2 | 7.0 | 0.00 | 0.00 | 0.00 | 71 | 1013.9 |
| 20260506150303 | 61 | 135 | 4.3 | 7.8 | 0.00 | 0.00 | 0.00 | 71 | 1013.9 |
| 20260506145756 | 61 | 157 | 7.8 | 7.8 | 0.00 | 0.00 | 0.00 | 71 | 1014.0 |
| 20260506145256 | 61 | 157 | 7.0 | 9.6 | 0.00 | 0.00 | 0.00 | 69 | 1013.9 |
| 20260506144756 | 61 | 157 | 4.3 | 8.7 | 0.00 | 0.00 | 0.00 | 69 | 1013.9 |
| 20260506144256 | 61 | 180 | 7.8 | 8.7 | 0.00 | 0.00 | 0.00 | 68 | 1014.0 |
| 20260506143757 | 62 | 157 | 6.1 | 9.6 | 0.00 | 0.00 | 0.00 | 68 | 1013.9 |
| 20260506143257 | 62 | 180 | 4.3 | 8.7 | 0.00 | 0.00 | 0.00 | 68 | 1013.9 |
| 20260506142756 | 62 | 157 | 4.3 | 9.6 | 0.00 | 0.00 | 0.00 | 67 | 1013.9 |
| 20260506142257 | 62 | 157 | 4.3 | 7.0 | 0.00 | 0.00 | 0.00 | 68 | 1013.9 |
| 20260506141756 | 62 | 135 | 5.2 | 9.6 | 0.00 | 0.00 | 0.00 | 69 | 1013.9 |
| 20260506141257 | 63 | 135 | 4.3 | 8.7 | 0.00 | 0.00 | 0.00 | 69 | 1014.0 |
| 20260506140757 | 63 | 157 | 6.1 | 8.7 | 0.00 | 0.00 | 0.00 | 68 | 1014.1 |
| 20260506140257 | 63 | 135 | 7.0 | 8.7 | 0.00 | 0.00 | 0.00 | 68 | 1014.0 |
| 20260506135757 | 63 | 157 | 4.3 | 9.6 | 0.00 | 0.00 | 0.00 | 67 | 1014.0 |
| 20260506135257 | 63 | 157 | 7.0 | 9.6 | 0.00 | 0.00 | 0.00 | 67 | 1014.0 |
| 20260506134757 | 63 | 157 | 4.3 | 9.6 | 0.00 | 0.00 | 0.00 | 67 | 1014.1 |
| 20260506134257 | 63 | 135 | 6.1 | 9.6 | 0.00 | 0.00 | 0.00 | 66 | 1014.1 |
| 20260506133757 | 64 | 180 | 5.2 | 10.4 | 0.00 | 0.00 | 0.00 | 67 | 1014.1 |
| 20260506133257 | 64 | 157 | 7.0 | 9.6 | 0.00 | 0.00 | 0.00 | 67 | 1014.1 |
| 20260506132757 | 64 | 157 | 6.1 | 9.6 | 0.00 | 0.00 | 0.00 | 65 | 1014.0 |
| 20260506132257 | 64 | 135 | 7.0 | 10.4 | 0.00 | 0.00 | 0.00 | 65 | 1014.1 |
| 20260506131757 | 64 | 157 | 6.1 | 8.7 | 0.00 | 0.00 | 0.00 | 64 | 1014.1 |
| 20260506131257 | 65 | 157 | 7.0 | 10.4 | 0.00 | 0.00 | 0.00 | 62 | 1014.0 |
| 20260506130757 | 65 | 157 | 3.5 | 7.0 | 0.00 | 0.00 | 0.00 | 63 | 1014.1 |
| 20260506130257 | 65 | 157 | 3.5 | 10.4 | 0.00 | 0.00 | 0.00 | 63 | 1014.1 |
| 20260506125757 | 65 | 157 | 7.8 | 7.8 | 0.00 | 0.00 | 0.00 | 61 | 1014.1 |
| 20260506125257 | 65 | 135 | 3.5 | 8.7 | 0.00 | 0.00 | 0.00 | 61 | 1014.2 |
| 20260506124757 | 66 | 157 | 3.5 | 12.2 | 0.00 | 0.00 | 0.00 | 59 | 1014.2 |
| 20260506124257 | 66 | 180 | 7.8 | 8.7 | 0.00 | 0.00 | 0.00 | 60 | 1014.2 |
| 20260506123757 | 67 | 157 | 7.0 | 8.7 | 0.00 | 0.00 | 0.00 | 59 | 1014.2 |
| 20260506123257 | 67 | 135 | 3.5 | 7.0 | 0.00 | 0.00 | 0.00 | 60 | 1014.2 |
| 20260506122757 | 67 | 135 | 3.5 | 9.6 | 0.00 | 0.00 | 0.00 | 60 | 1014.3 |
| 20260506122257 | 67 | 157 | 3.5 | 7.0 | 0.00 | 0.00 | 0.00 | 59 | 1014.3 |
| 20260506121757 | 68 | 135 | 4.3 | 8.7 | 0.00 | 0.00 | 0.00 | 60 | 1014.3 |
| 20260506121257 | 68 | 157 | 4.3 | 7.8 | 0.00 | 0.00 | 0.00 | 59 | 1014.5 |
| 20260506120757 | 68 | 135 | 4.3 | 9.6 | 0.00 | 0.00 | 0.00 | 59 | 1014.4 |
| 20260506120257 | 68 | 180 | 7.0 | 7.0 | 0.00 | 0.00 | 0.00 | 59 | 1014.4 |
| 20260506115757 | 68 | 157 | 3.5 | 8.7 | 0.00 | 0.00 | 0.00 | 59 | 1014.5 |
| 20260506115257 | 69 | 157 | 3.5 | 7.8 | 0.00 | 0.00 | 0.00 | 58 | 1014.5 |
| 20260506114757 | 69 | 157 | 3.5 | 9.6 | 0.00 | 0.00 | 0.00 | 57 | 1014.5 |
| 20260506114257 | 69 | 180 | 6.1 | 9.6 | 0.00 | 0.00 | 0.00 | 56 | 1014.5 |
| 20260506113757 | 69 | 135 | 6.1 | 7.8 | 0.00 | 0.00 | 0.00 | 56 | 1014.5 |
| 20260506113257 | 69 | 157 | 7.0 | 10.4 | 0.00 | 0.00 | 0.00 | 56 | 1014.5 |
| 20260506112757 | 69 | 157 | 3.5 | 8.7 | 0.00 | 0.00 | 0.00 | 54 | 1014.6 |
| 20260506112257 | 69 | 135 | 5.2 | 8.7 | 0.00 | 0.00 | 0.00 | 56 | 1014.6 |
| 20260506111757 | 70 | 135 | 8.7 | 9.6 | 0.00 | 0.00 | 0.00 | 56 | 1014.7 |
| 20260506111257 | 70 | 157 | 7.0 | 9.6 | 0.00 | 0.00 | 0.00 | 55 | 1014.8 |
| 20260506110757 | 70 | 157 | 5.2 | 7.8 | 0.00 | 0.00 | 0.00 | 58 | 1014.7 |
| 20260506110257 | 69 | 135 | 7.8 | 7.8 | 0.00 | 0.00 | 0.00 | 57 | 1014.8 |
| 20260506105757 | 69 | 157 | 4.3 | 9.6 | 0.00 | 0.00 | 0.00 | 56 | 1014.7 |
| 20260506105257 | 69 | 180 | 5.2 | 8.7 | 0.00 | 0.00 | 0.00 | 56 | 1014.7 |
| 20260506104757 | 69 | 157 | 7.0 | 8.7 | 0.00 | 0.00 | 0.00 | 57 | 1014.8 |
| 20260506104257 | 69 | 135 | 3.5 | 8.7 | 0.00 | 0.00 | 0.00 | 56 | 1014.7 |
| 20260506103757 | 69 | 157 | 7.8 | 9.6 | 0.00 | 0.00 | 0.00 | 57 | 1014.8 |
| 20260506103257 | 69 | 157 | 5.2 | 7.0 | 0.00 | 0.00 | 0.00 | 57 | 1014.8 |
| 20260506102757 | 69 | 135 | 4.3 | 8.7 | 0.00 | 0.00 | 0.00 | 57 | 1014.7 |
| 20260506102257 | 69 | 135 | 5.2 | 7.8 | 0.00 | 0.00 | 0.00 | 57 | 1014.7 |
| 20260506101757 | 68 | 157 | 1.7 | 7.8 | 0.00 | 0.00 | 0.00 | 59 | 1014.7 |
| 20260506101257 | 68 | 180 | 3.5 | 9.6 | 0.00 | 0.00 | 0.00 | 59 | 1014.7 |
| 20260506100757 | 68 | 157 | 6.1 | 9.6 | 0.00 | 0.00 | 0.00 | 59 | 1014.7 |
| 20260506100257 | 68 | 135 | 4.3 | 8.7 | 0.00 | 0.00 | 0.00 | 60 | 1014.6 |
| 20260506095757 | 68 | 157 | 5.2 | 8.7 | 0.00 | 0.00 | 0.00 | 60 | 1014.6 |
| 20260506095257 | 68 | 157 | 7.0 | 8.7 | 0.00 | 0.00 | 0.00 | 59 | 1014.5 |
| 20260506094757 | 68 | 180 | 6.1 | 7.8 | 0.00 | 0.00 | 0.00 | 60 | 1014.6 |
| 20260506094257 | 68 | 180 | 6.1 | 8.7 | 0.00 | 0.00 | 0.00 | 59 | 1014.7 |
| 20260506093757 | 68 | 157 | 1.7 | 8.7 | 0.00 | 0.00 | 0.00 | 60 | 1014.6 |
| 20260506093257 | 68 | 135 | 4.3 | 7.8 | 0.00 | 0.00 | 0.00 | 60 | 1014.7 |
| 20260506092757 | 68 | 135 | 4.3 | 10.4 | 0.00 | 0.00 | 0.00 | 59 | 1014.7 |
| 20260506092257 | 69 | 135 | 6.1 | 7.8 | 0.00 | 0.00 | 0.00 | 58 | 1014.7 |
| 20260506091757 | 69 | 157 | 5.2 | 8.7 | 0.00 | 0.00 | 0.00 | 59 | 1014.6 |
| 20260506091257 | 69 | 157 | 3.5 | 7.8 | 0.00 | 0.00 | 0.00 | 60 | 1014.6 |
| 20260506090757 | 69 | 157 | 4.3 | 7.8 | 0.00 | 0.00 | 0.00 | 59 | 1014.6 |
| 20260506090257 | 69 | 157 | 6.1 | 8.7 | 0.00 | 0.00 | 0.00 | 60 | 1014.6 |
| 20260506085757 | 69 | 157 | 4.3 | 7.8 | 0.00 | 0.00 | 0.00 | 60 | 1014.5 |
| 20260506085257 | 69 | 135 | 4.3 | 7.0 | 0.00 | 0.00 | 0.00 | 59 | 1014.5 |
| 20260506084757 | 69 | 157 | 3.5 | 9.6 | 0.00 | 0.00 | 0.00 | 59 | 1014.5 |
| 20260506084257 | 70 | 180 | 4.3 | 7.0 | 0.00 | 0.00 | 0.00 | 59 | 1014.4 |
| 20260506083757 | 70 | 112 | 2.6 | 8.7 | 0.00 | 0.00 | 0.00 | 58 | 1014.4 |
| 20260506083257 | 70 | 180 | 3.5 | 6.1 | 0.00 | 0.00 | 0.00 | 59 | 1014.4 |
| 20260506082757 | 70 | 180 | 3.5 | 7.8 | 0.00 | 0.00 | 0.00 | 58 | 1014.4 |
| 20260506082257 | 70 | 157 | 2.6 | 7.8 | 0.00 | 0.00 | 0.00 | 59 | 1014.2 |
| 20260506081757 | 70 | 157 | 2.6 | 7.0 | 0.00 | 0.00 | 0.00 | 58 | 1014.3 |
| 20260506081257 | 70 | 157 | 4.3 | 8.7 | 0.00 | 0.00 | 0.00 | 56 | 1014.3 |
| 20260506080757 | 70 | 157 | 3.5 | 7.8 | 0.00 | 0.00 | 0.00 | 56 | 1014.3 |
| 20260506080257 | 70 | 157 | 2.6 | 5.2 | 0.00 | 0.00 | 0.00 | 57 | 1014.2 |
| 20260506073257 | 69 | 135 | 3.5 | 5.2 | 0.00 | 0.00 | 0.00 | 54 | 1014.1 |
| 20260506072757 | 70 | 112 | 4.3 | 7.8 | 0.00 | 0.00 | 0.00 | 54 | 1014.1 |
| 20260506072257 | 70 | 157 | 3.5 | 6.1 | 0.00 | 0.00 | 0.00 | 54 | 1014.1 |
| 20260506071757 | 70 | 112 | 3.5 | 5.2 | 0.00 | 0.00 | 0.00 | 53 | 1014.0 |
| 20260506071257 | 70 | 157 | 5.2 | 5.2 | 0.00 | 0.00 | 0.00 | 53 | 1014.0 |
| 20260506070757 | 70 | 157 | 1.7 | 5.2 | 0.00 | 0.00 | 0.00 | 52 | 1013.9 |
| 20260506070257 | 70 | 157 | 3.5 | 5.2 | 0.00 | 0.00 | 0.00 | 50 | 1013.8 |
| 20260506062257 | 77 | 157 | 0.9 | 2.6 | 0.00 | 0.00 | 0.00 | 37 | 1013.5 |
| 20260506061757 | 77 | 157 | 0.9 | 2.6 | 0.00 | 0.00 | 0.00 | 39 | 1013.5 |
| 20260506061257 | 78 | 135 | 0.0 | 1.7 | 0.00 | 0.00 | 0.00 | 38 | 1013.3 |
| 20260506060757 | 78 | 157 | 1.7 | 1.7 | 0.00 | 0.00 | 0.00 | 39 | 1013.4 |
| 20260506060257 | 78 | 180 | 0.9 | 1.7 | 0.00 | 0.00 | 0.00 | 40 | 1013.3 |